Regional Weather Roundup
Issued by NWS

Home | Current Version | Previous Version | Text Only | Print | Product List | Glossary On
Versions: 1 2 3 4 5 6 7 8 9 10 11 12 13 14 15 16 17 18 19 20 21 22 23 24 25 26 27 28 29 30 31 32 33 34 35 36 37 38 39 40 41 42 43 44 45 46 47 48 49 50
000
ASUS43 KMPX 271710
RWRMN
WEATHER ROUNDUP FOR MINNESOTA
NATIONAL WEATHER SERVICE TWIN CITIES/CHANHASSEN MN
1200 PM CDT FRI MAY 27 2016


NOTE: "FAIR" INDICATES FEW OR NO CLOUDS BELOW 12,000 FEET WITH NO
SIGNIFICANT WEATHER AND/OR OBSTRUCTIONS TO VISIBILITY. N/A MEANS
CURRENT SKY AND/OR WEATHER CONDITIONS ARE NOT AVAILABLE.

MNZ060>063-068>070-271800-
   Twin Cities Metro

CITY           SKY/WX    TMP DP  RH WIND       PRES   REMARKS
TWIN CITIES    LGT RAIN  64  61  90 SE3       29.81F FOG
ST PAUL        LGT RAIN  64  60  87 CALM      29.82F
CRYSTAL        LGT RAIN  64  59  83 SE7       29.80F
BLAINE         LGT RAIN  64  64 100 E7        29.82F
EDEN PRAIRIE   LGT RAIN  65  61  87 E8        29.80F FOG
SOUTH ST PAUL  CLOUDY    64  60  88 CALM      29.81F
LAKE ELMO      DRIZZLE   63  61  94 N3        29.82F
$$
MNZ001>005-007-008-013>017-022>024-027-028-271800-
   Northwest Minnesota

CITY           SKY/WX    TMP DP  RH WIND       PRES   REMARKS
BEMIDJI        CLOUDY    69  51  54 E12G18    29.83S
HALLOCK        CLOUDY    66  57  72 S7        29.81S
ROSEAU         PTSUNNY   68  59  73 S3        29.82S
WARROAD        PTSUNNY   66  59  77 NE6       29.83F
THIEF RVR FALL MOSUNNY   70  52  52 CALM      29.82F
CROOKSTON      CLOUDY    68  57  68 CALM      29.81S
FOSSTON        MOSUNNY   73  70  88 E5        29.79F
DETROIT LAKES  MOSUNNY   72  54  53 NE8       29.79F
MOORHEAD       MOSUNNY   73  57  56 N8        29.77F
PARK RAPIDS    PTSUNNY   68  54  60 SE9       29.81S
MAHNOMEN       FAIR      72  59  62 NE7       29.77F
$$
MNZ006-009>011-018-025>026-271800-
   North Central Minnesota

CITY           SKY/WX    TMP DP  RH WIND       PRES   REMARKS
BAUDETTE       CLOUDY    69  55  60 E3        29.82F
FLAG ISLAND    MOSUNNY   61  55  82 S6        29.83S
INTL FALLS     PTSUNNY   72  56  57 SE8       29.85R
WASKISH        PTSUNNY   73  55  53 E15       29.82S
BIG FORK       LGT RAIN  64  55  72 SE6       29.88R
LONGVILLE      LGT RAIN  61  57  88 E3        29.86R
GRAND RAPIDS   RAIN      57  55  93 NE3       29.90R FOG
CRANE LAKE     CLOUDY    64  57  77 SE5       29.89S
ORR            DRIZZLE   63  52  67 SE6       29.87S
COOK           DRIZZLE   63  55  77 SE7       29.90S
WALKER         FAIR      64  55  74 E5        29.83S
$$
MNZ012-019>021-037-271800-
   Northeast Minnesota

CITY           SKY/WX    TMP DP  RH WIND       PRES   REMARKS
DULUTH         LGT RAIN  59  53  80 CALM      29.90R
ELY            LGT RAIN  70  54  56 S5        29.90R
HIBBING        LGT RAIN  58  56  93 CALM      29.91R FOG
EVELETH        LGT RAIN  59  55  88 CALM      29.92R
DULUTH HARBOR  DRIZZLE   46  45  93 E3        29.92R
TWO HARBORS    DRIZZLE   61  55  82 CALM      29.89R
SILVER BAY     CLOUDY    64  54  68 E3        29.89R
GRAND MARAIS     N/A     45  43  93 NE5       29.90F
G MARAIS ARPRT CLOUDY    63  52  67 E7        29.93F
$$
MNZ029>031-032-039>041-046>048-054>057-064-271800-
   West Central Minnesota

CITY           SKY/WX    TMP DP  RH WIND       PRES   REMARKS
FERGUS FALLS   CLOUDY    64  55  72 E6        29.74F
WHEATON        PTSUNNY   72  55  56 NE10      29.78R
MORRIS         CLOUDY    64  59  82 CALM      29.77R
ALEXANDRIA     CLOUDY    68  58  70 SE8       29.79S
ELBOW LAKE     DRIZZLE   65  55  69 NE10      29.78R
WADENA         CLOUDY    64  55  72 NE3       29.80R
GLENWOOD       CLOUDY    70  59  68 S9        29.78S
APPLETON       PTSUNNY   72  55  56 S6        29.75R
BENSON         CLOUDY    66  61  82 S5        29.77R
ORTONVILLE     LGT RAIN  64  57  77 CALM      29.77R
MADISON        CLOUDY    66  55  68 W8        29.77R
WILLMAR        FAIR      70  59  68 SE14G21   29.78F
$$
MNZ033>034-036-042>043-049>051-058-059-271800-
   Central Minnesota

CITY           SKY/WX    TMP DP  RH WIND       PRES   REMARKS
ST CLOUD       LGT RAIN  63  61  93 E7        29.82R
SAUK CENTRE    FAIR      68  58  69 S15       29.79S
PAYNESVILLE    CLOUDY    67  58  73 SE13      29.80R
AITKIN         MIX PCPN  63  57  82 SE7       29.86R
PINE RIVER     LGT RAIN  61  57  88 E10       29.87S
BRAINERD       LGT RAIN  62  59  90 SE9G20    29.84R
STAPLES        CLOUDY    66  55  68 E10       29.81R
LONG PRAIRIE   PTSUNNY   68  57  68 E14G21    29.80S
LITTLE FALLS   CLOUDY    64  57  77 SE9G17    29.82S
LITCHFIELD     LGT RAIN  64  64 100 SE8       29.81S
BUFFALO        RAIN      63  59  88 E7        29.83S
MAPLE LAKE     LGT RAIN  64  62  94 SE8       29.82F
HUTCHINSON     RAIN      65  62  91 SE5       29.81S
$$
MNZ037-044-045-052-053-271800-
   East Central Minnesota

CITY           SKY/WX    TMP DP  RH WIND       PRES   REMARKS
PRINCETON      RAIN      64  61  88 E6        29.84S
MORA           RAIN      59  55  88 E5        29.87F
CAMBRIDGE      RAIN      64  55  72 CALM      29.82F
RUSH CITY      LGT RAIN  63  60  90 CALM      29.85F
MOOSE LAKE     LGT RAIN  55  54  94 NE6       29.86S
HINCKLEY       LGT RAIN  63  63 100 SW5       29.85F
CLOQUET        LGT RAIN  55  52  88 CALM      29.90R
MCGREGOR       CLOUDY    59  57  94 E6        29.89R
$$
MNZ071>073-080-081-089-090-097-098-271800-
   Southwest Minnesota

CITY           SKY/WX    TMP DP  RH WIND       PRES   REMARKS
MONTEVIDEO     PTSUNNY   75  57  53 SW10G16   29.77S
GRANITE FALLS  CLOUDY    74  58  58 S14       29.77S
CANBY          CLOUDY    68  58  71 NW8       29.78S
MARSHALL       CLOUDY    70  56  61 S12       29.76F
REDWOOD FALLS  CLOUDY    69  59  70 S12       29.76F
OLIVIA         PTSUNNY   64  57  77 S9        29.77F
PIPESTONE      CLOUDY    68  57  68 SW7       29.77F
WINDOM         MOSUNNY   68  59  73 CALM      29.77F
WORTHINGTON    CLOUDY    66  58  75 SW9       29.78F
JACKSON        CLOUDY    68  55  64 S6        29.77F
TRACY          MOSUNNY   69  56  63 SW7       29.77F
SLAYTON        CLOUDY    67  53  59 CALM      29.78F
$$
MNZ065>067-074>077-082>085-091>093-271800-
   South Central Minnesota

CITY           SKY/WX    TMP DP  RH WIND       PRES   REMARKS
MANKATO        CLOUDY    64  59  82 SE13      29.79S
NEW ULM        LGT RAIN  66  63  88 S8        29.78F
ST JAMES       PTSUNNY   63  55  77 S6        29.78F
FAIRMONT       CLOUDY    66  59  77 SE15      29.77F
GLENCOE        LGT RAIN  66  64  91 E8        29.79F
FARIBAULT      CLOUDY    63  63 100 E3        29.81F
OWATONNA       LGT RAIN  64  61  88 E3        29.81S
WASECA         RAIN      63  59  88 E7        29.81S
ALBERT LEA     RAIN      63  63 100 E3        29.79F
$$
MNZ078>079-086>088-094>096-271800-
   Southeast Minnesota

CITY           SKY/WX    TMP DP  RH WIND       PRES   REMARKS
ROCHESTER      CLOUDY    67  63  87 E9        29.80F
RED WING       CLOUDY    64  61  88 CALM      29.80S
STANTON        LGT RAIN  65  59  79 CALM      29.80F
DODGE CENTER   CLOUDY    66  59  77 NE8       29.80F
WINONA         CLOUDY    70  63  78 SE7       29.80F
AUSTIN         HVY RAIN  63  59  88 NE5       29.80S
PRESTON        LGT RAIN  65  61  88 E3        29.80F
$$
ABBREVIATIONS USED IN REMARKS
   TC - TEMPERATURES IN CELSIUS
  WCI - WIND CHILL INDEX
   HX - HEAT INDEX
  VSB - VISIBILITY
$$




USA.gov is the U.S. government's official web portal to all federal, state and local government web resources and services.